Location: Chenereilles
(45.4866°N, 4.0790°E)
Time: 16:37:44
(UTC+00:00)

ATLAS 5 CENTAUR R/B - Pass Details

Date: 12 November 2019
Orbit: 563 x 1096 km, 63.3° (Epoch: 29 November)

Event Time Altitude Azimuth Distance (km) Brightness Sun altitude
Rises 18:29:37 0° 319° (NW) 3,339 5.9 -23.3°
Reaches altitude 10° 18:31:56 10° 317° (NW) 2,482 5.1 -23.7°
Maximum altitude 18:37:43 68° 236° (SW) 1,008 2.6 -24.7°
Enters shadow 18:42:08 22° 158° (SSE) 2,043 4.0 -25.5°
